Location: Kergrach
(48.3833°N, 4.5167°W)
Time: 14:52:44
(UTC+00:00)

NOSS 2-1 (E) - Pass Details

Date: 18 February 2020
Orbit: 450 x 1753 km, 63.3° (Epoch: 27 March)

Event Time Altitude Azimuth Distance (km) Brightness Sun altitude
Exits shadow 06:04:58 21° 296° (WNW) 1,140 4.4 -13.3°
Maximum altitude 06:06:12 25° 328° (NNW) 1,037 4.4 -13.1°
Drops below altitude 10° 06:09:37 10° 26° (NNE) 1,872 6.3 -12.5°
Sets 06:12:25 0° 39° (NE) 2,951 7.6 -12.0°
